カタログに戻る

RITE TARGET 2

運用中軍事SSO
NORAD 28455·PAYLOAD·🇯🇵 Japan

打ち上げ Dec 14, 2002 から Tanegashima Space Center

Loading…

次のパス (今後24時間)

TLE

最新Source: Space-Track

元期: Sep 12, 2026, 04:01 UTC

1 28455U 02056G   26255.16771320  .00000449  00000-0  16537-3 0  9996
2 28455  98.7651 233.7694 0009073 318.1467  41.9025 14.37453900687485

AllMySatでRITE TARGET 2をリアルタイム追跡

Download on the App Store